User: anonymous   Login
Location: Pianadetto
(44.4000°N, 10.1000°E)
Time: 09:04:58
(UTC+00:00)
Language:

Cosmos 1378 Rocket - Orbit

View from above orbital plane
View from above orbital plane
View from above satellite
View from above satellite

Ground track
Ground track

The orbit data is extracted from the following two-line orbital elements,

1 13272U 82059B   22230.30709022  .00000406  00000-0  44742-4 0  9996
2 13272  82.5131 164.7734 0018695   6.5201 353.6254 14.84926321172055
Epoch (UTC): 18 August 2022 07:22:12
Eccentricity: 0.0018695
inclination: 82.5131°
perigee height: 601 km
apogee height: 627 km
right ascension of ascending node: 164.7734°
argument of perigee: 6.5201°
revolutions per day: 14.84926321
mean anomaly at epoch: 353.6254°
orbit number at epoch: 17205

The dashed part of the orbit path shows where the satellite is in the earth's shadow,  

DLR